Home   Weather   Mississauga   Past weeks

Flag for Canada Past Weather in Mississauga, Ontario, Canada — Yesterday and Last 2 Weeks

Now
37 °F

Passing clouds.


Feels Like: 28 °F
Forecast: 32 / 45 °F
Wind: 16 mph from Southwest

Location: Toronto Pearson International Airport

Current Time: Feb 27, 2017 at 4:13:16 am

Latest Report: Feb 27, 2017 at 3:00 am


Visibility: 15 mi

Pressure: 30.06 "Hg

Humidity: 52%

Dew Point: 21 °F

Location of MississaugaLocation

Past Weather in Mississauga — Graph

°F

Mississauga Temperature Yesterday

Maximum temperature yesterday: 37 °F (at 4:00 pm)
Minimum temperature yesterday: 25 °F (at 3:00 am)
Average temperature yesterday: 30 °F

High & Low Weather Summary for the Past Weeks

 TemperatureHumidityPressure
High63 °F (Feb 23, 12:00 pm)100% (Feb 12, 6:00 pm)30.40 "Hg (Feb 12, 6:00 pm)
Low14 °F (Feb 16, 7:00 am)41% (Feb 26, 4:00 pm)29.43 "Hg (Feb 25, 7:22 am)
Average35 °F77%29.83 "Hg
* Reported Feb 12 3:00 am — Feb 27 3:00 am, Mississauga, Weather by CustomWeather, © 2017

Note: Actual official high and low records may vary slightly from our data, if they occured in-between our weather recording intervals... More about our weather records

Advertising

Mississauga Weather History for the Previous 24 Hours

Scroll right to see more
 ConditionsComfort  
Time TempWeatherWind HumidityBarometerVisibility
3:00 am
Mon, Feb 27
37 °FPassing clouds.16 mph52%30.06 "Hg15 mi
2:00 am37 °FPassing clouds.16 mph52%30.04 "Hg15 mi
1:02 am36 °FPassing clouds.10 mph56%30.04 "Hg15 mi
12:00 am36 °FPassing clouds.12 mph56%30.03 "Hg15 mi
11:00 pm
Sun, Feb 26
36 °FPartly cloudy.16 mph56%30.03 "Hg15 mi
10:00 pm36 °FPassing clouds.17 mph56%30.03 "Hg15 mi
9:00 pm34 °FMostly cloudy.14 mph56%30.03 "Hg15 mi
8:00 pm32 °FPassing clouds.14 mph55%30.03 "Hg15 mi
7:00 pm32 °FMostly cloudy.21 mph51%30.02 "Hg15 mi
6:00 pm34 °FPartly sunny.16 mph51%30.03 "Hg15 mi
5:00 pm34 °FPartly sunny.15 mph51%30.01 "Hg15 mi
4:46 pm36 °FPassing clouds.17 mph48%30.02 "Hg15 mi
4:00 pm37 °FScattered clouds.13 mph41%30.01 "Hg15 mi
3:00 pm36 °FPartly sunny.16 mph44%30.03 "Hg15 mi
2:00 pm34 °FBroken clouds.16 mph51%30.05 "Hg15 mi
1:00 pm32 °FPartly sunny.14 mph51%30.06 "Hg15 mi
12:00 pm30 °FPartly sunny.17 mph59%30.07 "Hg15 mi
11:00 am32 °FPartly sunny.16 mph47%30.05 "Hg15 mi
10:00 am30 °FBroken clouds.22 mph51%30.05 "Hg15 mi
9:28 am28 °FBroken clouds.15 mph64%30.04 "Hg15 mi
9:00 am28 °FSnow flurries. Mostly cloudy.16 mph69%30.03 "Hg13 mi
8:00 am27 °FSnow flurries. Overcast.13 mph74%30.01 "Hg10 mi
7:54 am27 °FSnow flurries. Overcast.14 mph74%30.01 "Hg10 mi
7:00 am27 °FOvercast.12 mph69%29.98 "Hg15 mi
6:00 am27 °FOvercast.9 mph59%29.96 "Hg15 mi
5:00 am27 °FOvercast.9 mph59%29.93 "Hg15 mi
4:00 am25 °FPassing clouds.12 mph59%29.91 "Hg15 mi
Weather by CustomWeather, © 2017

See weather overviewHow to use our weather pages